Content
SEND FEEDBACK

Daily
Averages
Monthly
Summary
Mexico

PLAYA DEL CARMEN, QUINTANA ROO


Home > North America > Mexico > Quintana Roo
Elevation: 30 feet     Latitude: 20 38N     Longitude: 087 04W

WEATHER
 
SELECT A DAY
Number of Records: 206,549;   Date Range: 2/21/06 - 12/26/14
 
SHARE

PRINT THIS DATA

[ ← Previous Day ]
WEATHER ALMANAC - OCTOBER 25, 2013
[ Next Day → ]
[ °C ]   °F
Weather ElementAverageHighLow
Temperature67.6 °F80.6 °F (1:55 pm)57.2 °F (4:35 am)
Dewpoint36.1 °F60.8 °F (12:55 am) (7:00 pm)
Humidity51.8 %100 % (12:55 am)21 % (3:15 pm)
Barometer30.22 in30.28 in (10:35 am)30.18 in (4:55 pm)
Wind Speed3.9 mph9.2 mph (11:15 am)
Weather ElementAverage
Visibility9.8 mi
Wind DirectionENE (72.8 °)

Weather ElementTotal
Precipitation---
Cooling Degree Days3.9 (Base 65)
Growing Degree Days18.9 (Base 50)
Averaged from 71 records on October 25, 2013
WEATHER CONDITIONS BREAKOUT
WIND DIRECTION BREAKOUT
WEATHER BY HOUR - OCTOBER 25, 2013
[ °C ]   °F
Local TimeTemperatureDewpointHumidityBarometerVisibilityWind DirectionWind SpeedGust SpeedPrecipitationEventsConditions
12:35 AM60.8 °F57.2 °F88 %30.20 in10.0 miNorth (360°)3.5 mphClear
12:55 AM60.8 °F60.8 °F100 %30.20 in10.0 miCalmClear
1:15 AM59.0 °F0.0 °F30.19 in10.0 miNNE (20°)3.5 mphClear
1:35 AM59.0 °F59.0 °F100 %30.20 in10.0 miCalmClear
1:55 AM59.0 °F59.0 °F100 %30.20 in10.0 miNorth (10°)3.5 mphClear
2:15 AM59.0 °F57.2 °F94 %30.19 in10.0 miNNE (20°)3.5 mphClear
2:35 AM59.0 °F55.4 °F88 %30.20 in10.0 miCalmClear
2:55 AM59.0 °F55.4 °F88 %30.19 in10.0 miCalmClear
3:15 AM59.0 °F55.4 °F88 %30.19 in10.0 miCalmClear
3:35 AM59.0 °F57.2 °F94 %30.19 in10.0 miCalmClear
3:55 AM59.0 °F0.0 °F30.19 in10.0 miNorth (10°)3.5 mphClear
4:15 AM59.0 °F0.0 °F30.20 in10.0 miNorth (10°)3.5 mphClear
4:35 AM57.2 °F0.0 °F30.19 in10.0 miCalmClear
4:55 AM57.2 °F0.0 °F30.20 in10.0 miNNE (20°)3.5 mphClear
5:15 AM57.2 °F0.0 °F30.20 in10.0 miCalmClear
5:35 AM57.2 °F0.0 °F30.20 in10.0 miNorth (360°)3.5 mphClear
5:55 AM57.2 °F0.0 °F30.21 in10.0 miNorth (10°)3.5 mphClear
6:15 AM57.2 °F0.0 °F30.21 in10.0 miNNE (20°)3.5 mphClear
6:35 AM57.2 °F0.0 °F30.22 in10.0 miNNE (20°)3.5 mphClear
6:55 AM57.2 °F0.0 °F30.22 in10.0 miNNE (20°)3.5 mphClear
7:15 AM57.2 °F0.0 °F30.23 in10.0 miNorth (360°)3.5 mphClear
7:35 AM57.2 °F0.0 °F30.23 in10.0 miNorth (360°)3.5 mphClear
7:55 AM57.2 °F0.0 °F30.24 in7.0 miCalmClear
8:15 AM57.2 °F0.0 °F30.24 in7.0 miCalmClear
8:35 AM59.0 °F0.0 °F30.25 in7.0 miNorth (10°)3.5 mphClear
8:55 AM60.8 °F0.0 °F30.26 in7.0 miNNE (20°)3.5 mphClear
9:15 AM62.6 °F0.0 °F30.26 in10.0 miNNE (20°)3.5 mphClear
9:35 AM66.2 °F55.4 °F68 %30.27 in10.0 miNorth (10°)6.9 mphClear
9:55 AM68.0 °F53.6 °F60 %30.27 in10.0 miNorth (10°)5.8 mphClear
10:15 AM69.8 °F53.6 °F56 %30.27 in10.0 miNNE (20°)6.9 mphClear
10:35 AM69.8 °F53.6 °F56 %30.28 in10.0 miNNE (20°)6.9 mphClear
10:55 AM71.6 °F51.8 °F50 %30.28 in10.0 miNE (40°)5.8 mphClear
11:15 AM73.4 °F46.4 °F38 %30.28 in10.0 miNorth (360°)9.2 mphClear
11:35 AM75.2 °F44.6 °F34 %30.27 in10.0 miNNE (30°)9.2 mphClear
11:55 AM75.2 °F41.0 °F29 %30.26 in10.0 miNNE (30°)8.1 mphClear
12:15 PM77.0 °F39.2 °F26 %30.26 in10.0 miNorth (10°)9.2 mphClear
12:35 PM77.0 °F39.2 °F26 %30.25 in10.0 miNorth (10°)6.9 mphClear
12:55 PM78.8 °F39.2 °F24 %30.25 in10.0 miNNE (30°)8.1 mphClear
1:15 PM78.8 °F39.2 °F24 %30.23 in10.0 miNE (40°)3.5 mphClear
1:35 PM78.8 °F39.2 °F24 %30.22 in10.0 miNorth (10°)6.9 mphClear
1:55 PM80.6 °F41.0 °F24 %30.22 in10.0 miNE (40°)8.1 mphClear
2:15 PM80.6 °F39.2 °F23 %30.21 in10.0 miNE (40°)5.8 mphClear
2:35 PM80.6 °F39.2 °F23 %30.20 in10.0 miNE (40°)3.5 mphClear
2:55 PM80.6 °F39.2 °F23 %30.20 in10.0 miNNE (30°)5.8 mphClear
3:15 PM80.6 °F37.4 °F21 %30.20 in10.0 miNNE (20°)6.9 mphClear
3:35 PM80.6 °F39.2 °F23 %30.20 in10.0 miNNW (340°)4.6 mphClear
3:55 PM80.6 °F37.4 °F21 %30.19 in10.0 miNorth (10°)5.8 mphClear
4:15 PM80.6 °F39.2 °F23 %30.19 in10.0 miNorth (360°)4.6 mphClear
4:35 PM80.6 °F39.2 °F23 %30.19 in10.0 miNNE (20°)5.8 mphClear
4:55 PM80.6 °F37.4 °F21 %30.18 in10.0 miNorth (10°)8.1 mphClear
5:15 PM80.6 °F39.2 °F23 %30.18 in10.0 miNNE (20°)5.8 mphClear
5:35 PM80.6 °F37.4 °F21 %30.18 in10.0 miNorth (360°)6.9 mphClear
5:55 PM78.8 °F41.0 °F26 %30.18 in10.0 miNorth (360°)4.6 mphClear
6:15 PM78.8 °F42.8 °F28 %30.18 in10.0 miNorth (10°)3.5 mphClear
6:35 PM77.0 °F44.6 °F32 %30.19 in10.0 miCalmClear
6:55 PM75.2 °F46.4 °F36 %30.19 in10.0 miNorth (360°)3.5 mphClear
7:15 PM71.6 °F50.0 °F46 %30.20 in10.0 miCalmClear
7:35 PM69.8 °F51.8 °F53 %30.20 in10.0 miCalmClear
7:55 PM66.2 °F53.6 °F64 %30.20 in10.0 miNorth (10°)3.5 mphClear
8:15 PM66.2 °F53.6 °F64 %30.20 in10.0 miCalmClear
8:35 PM66.2 °F55.4 °F68 %30.21 in10.0 miNNE (30°)3.5 mphClear
8:55 PM68.0 °F53.6 °F60 %30.21 in10.0 miNNE (30°)3.5 mphClear
9:15 PM68.0 °F53.6 °F60 %30.22 in10.0 miNorth (10°)3.5 mphClear
9:35 PM66.2 °F55.4 °F68 %30.22 in10.0 miNNW (330°)3.5 mphClear
9:55 PM62.6 °F53.6 °F72 %30.23 in10.0 miCalmClear
10:15 PM64.4 °F55.4 °F73 %30.24 in10.0 miNorth (350°)4.6 mphClear
10:35 PM62.6 °F55.4 °F77 %30.25 in10.0 miNE (40°)3.5 mphClear
10:55 PM62.6 °F55.4 °F77 %30.25 in10.0 miNNE (20°)3.5 mphClear
11:15 PM64.4 °F53.6 °F68 %30.25 in10.0 miCalmClear
11:35 PM62.6 °F53.6 °F72 %30.25 in10.0 miNNE (30°)4.6 mphClear
11:55 PM62.6 °F55.4 °F77 %30.25 in10.0 miNNE (30°)4.6 mphClear
Hourly data recorded from KPCM, located miles away from Playa del Carmen, Quintana Roo







STORIES FROM OUR PARTNERS